Regional Weather Roundup
Issued by NWS

Home | Current Version | Previous Version | Text Only | Print | Product List | Glossary Off
Versions: 1 2 3 4 5 6 7 8 9 10 11 12 13 14 15 16 17 18 19 20 21 22 23 24 25 26 27 28 29 30 31 32 33 34 35 36 37 38 39 40 41 42 43 44 45 46 47 48 49 50

000
ASUS45 KBOU 192207
RWRCO

WEATHER ROUNDUP FOR COLORADO
NATIONAL WEATHER SERVICE DENVER/BOULDER CO
400 PM MDT SUN OCT 19 2014

NOTE: "FAIR" INDICATES FEW OR NO CLOUDS BELOW 12000 FEET WITH NO
SIGNIFICANT WEATHER AND/OR OBSTRUCTIONS TO VISIBILITY.

COZ001>005-013-030-031-192300-
...NORTHWEST COLORADO...

CITY           SKY/WX    TMP DP  RH WIND       PRES   REMARKS
CRAIG          SUNNY     71  31  22 CALM      30.12F
HAYDEN         SUNNY     68  28  22 NW3       30.14S
MEEKER         SUNNY     71  33  24 CALM      30.12S
MOUNT WERNER   NOT AVBL
STEAMBOAT SPGS SUNNY     67  29  23 SW5       30.15F
WALDEN         SUNNY     61  21  21 NW3       30.23S
$$

COZ006>008-011-192300-
...WEST CENTRAL VALLEYS...

CITY           SKY/WX    TMP DP  RH WIND       PRES   REMARKS
GRAND JUNCTION SUNNY     75  40  28 W7        30.03F
MONTROSE       MOSUNNY   73  36  25 VRB3      30.10S
EAGLE          MOSUNNY   68  34  28 CALM      30.15F
RIFLE          MOSUNNY   72  33  24 W6        30.07F
DELTA          MOSUNNY   77  33  20 S3        30.05F
NUCLA          MOSUNNY   70  34  26 N5        30.12F
$$

COZ017>023-064>068-192300-
...SOUTHWEST COLORADO...

CITY           SKY/WX    TMP DP  RH WIND       PRES   REMARKS
DURANGO        MOSUNNY   66  38  35 CALM      30.12F
CORTEZ         CLOUDY    68  45  43 CALM      30.09F
PAGOSA SPRINGS MOSUNNY   63  35  34 SW3       30.19R
TELLURIDE      MOSUNNY   57  33  39 SW6       30.28F
WOLF CREEK PAS CLOUDY    36  32  87 NE15      30.42S
$$

COZ009-010-012-014-032>034-037-058>063-192300-
...CENTRAL COLORADO...

CITY           SKY/WX    TMP DP  RH WIND       PRES   REMARKS
ASPEN          MOSUNNY   64  33  31 NE6       30.19R
BUENA VISTA    PTSUNNY   60  33  36 SW5       30.21S
COPPER MTN     MOSUNNY   50  28  43 S13       30.45R
BERTHOUD PASS  CLOUDY    37  34  87 E16G22    30.49S
COTTONWOOD PAS PTSUNNY   59  32  36 S7        30.32F
GUNNISON       MOSUNNY   64  32  29 NW14      30.20F
KREMMLING      SUNNY     70  21  16 CALM        N/A
LEADVILLE      CLOUDY    55  25  31 NW5       30.30S
MONARCH PASS   CLOUDY    41  32  70 E12       30.54R
SALIDA         PTSUNNY   66  32  28 NW8       30.26R
SUNLIGHT       SUNNY     50  34  53 CALM      30.39S
WILKERSON PASS NOT AVBL
$$

COZ069>075-192300-
...SAN LUIS VALLEY/SANGRE DE CRISTO MOUNTAINS...

CITY           SKY/WX    TMP DP  RH WIND       PRES   REMARKS
ALAMOSA        SUNNY     68  29  23 VRB5      30.17F
LA VETA PASS   PTSUNNY   46  32  57 E9G17     30.35S
SAGUACHE       MOSUNNY   64  32  29 W3        30.21S
$$

COZ035-036-038>040-192300-
...NORTHERN COLORADO FRONT RANGE...

CITY           SKY/WX    TMP DP  RH WIND       PRES   REMARKS
DENVER INTL AP MOSUNNY   74  29  19 E5        30.09F
DMNS CITY PARK   N/A     73  28  18 E3G10     30.08S
AURORA         MOSUNNY   72  33  23 NE8       30.12S
FRONT RANGE AP MOSUNNY   73  34  23 NE6       30.11F
ERIE MUNI ARPT SUNNY     74  28  18 CALM      30.09R
BOULDER MUN AP SUNNY     73  32  21 CALM      30.09S
CENTENNIAL     MOSUNNY   71  30  21 E6        30.12S
BROOMFIELD     MOSUNNY   72  30  21 S5        30.12R
FORT COLLINS   SUNNY     75  36  23 E6        30.08S
LONGMONT       SUNNY     77  32  19 E6        30.10S
$$

COZ041-046-047-076>085-087-088-192300-
...PIKES PEAK/PALMER DIVIDE AND SOUTHERN FOOTHILLS...

CITY           SKY/WX    TMP DP  RH WIND       PRES   REMARKS
COLO. SPRINGS  MOSUNNY   72  28  19 SE7       30.14R
A. F. ACADEMY  MOSUNNY   69  28  21 SE7       30.15S
ELLICOTT       NOT AVBL
FALCON         MOSUNNY   68  28  22 E8        30.19S
FORT CARSON    PTSUNNY   73  31  21 VRB3      30.11S
LIMON          SUNNY     73  32  22 NW9       30.10R
MONUMENT HILL  SUNNY     64  28  25 CALM      30.18F
TRINIDAD       MOSUNNY   73  31  21 NE7       30.10R
$$

COZ042>045-048>051-090-091-192300-
...NORTHEAST COLORADO...

CITY           SKY/WX    TMP DP  RH WIND       PRES   REMARKS
GREELEY ARPT   SUNNY     75  30  19 E7        30.07S
AKRON          SUNNY     74  36  25 NE7       30.07S
BURLINGTON     SUNNY     76  37  24 N10       30.05R
WRAY           MOSUNNY   78  34  20 NE10      30.03R
STERLING       SUNNY     77  43  29 NE5       30.04S
HOLYOKE        MOSUNNY   79  36  21 NE8       30.03S
FORT MORGAN    SUNNY     74  35  24 E6        30.07S
$$

COZ086-089-092>099-192300-
...SOUTHEAST COLORADO...

CITY           SKY/WX    TMP DP  RH WIND       PRES   REMARKS
PUEBLO         MOSUNNY   78  31  17 SE8       30.04S
LA JUNTA       SUNNY     80  35  19 VRB5      30.02R
LAMAR          SUNNY     78  43  28 MISG      29.98S
SPRINGFIELD      N/A     77  39  25 N9        30.02R
$$



USA.gov is the U.S. government's official web portal to all federal, state and local government web resources and services.